Voltar ao catálogo

FENGYUN 1C DEB

AtivoSSO
NORAD 31182·DEBRIS·🇨🇳 China

Lançado May 10, 1999 de Taiyuan Satellite Launch Center

Loading…

Próximas Passagens (próximas 24 horas)

TLE

AtualizadoSource: Space-Track

Época: Sep 14, 2026, 05:16 UTC

1 31182U 99025BJL 26257.21963145  .00000356  00000-0  20603-3 0  9991
2 31182  98.7045 243.9302 0024137  71.8696 353.1824 14.14888105999763

Acompanhe FENGYUN 1C DEB em tempo real com AllMySat

Download on the App Store